Home   Weather   Munich   Past weeks
Flag for Germany

Past Weather in Munich, Bavaria, Germany — Yesterday and Last 2 Weeks

Now
57 °F

Clear.


Feels Like: 57 °F
Forecast: 79 / 64 °F
Wind: 2 mph from North

Location: Oberpfaffenhofen

Current Time: Jul 20, 2019 at 3:06:48 am

Latest Report: Jul 20, 2019 at 2:20 am


Visibility: N/A

Pressure: 30.04 "Hg (28.22 "Hg at 526m altitude)

Humidity: 94%

Dew Point: 55 °F

Location of MunichLocation

Past Weather in Munich — Graph

°F

Munich Temperature Yesterday

Maximum temperature yesterday: 79 °F (at 2:50 pm)
Minimum temperature yesterday: 55 °F (at 1:50 am)
Average temperature yesterday: 68 °F

High & Low Weather Summary for the Past Weeks

 TemperatureHumidityPressure
High84 °F (Jul 6, 1:50 pm)100% (Jul 8, 5:20 am)30.12 "Hg (Jul 8, 5:20 am)
Low46 °F (Jul 11, 12:50 am)32% (Jul 6, 1:20 pm)29.89 "Hg (Jul 12, 7:20 pm)
Average62 °F72%30.02 "Hg
* Reported Jul 5 1:20 am — Jul 20 1:50 am, Munich. Weather by CustomWeather, © 2019

Note: Actual official high and low records may vary slightly from our data, if they occured in-between our weather recording intervals... More about our weather records

Advertising

Munich Weather History for the Previous 24 Hours

Scroll right to see more
 ConditionsComfort  
Time TempWeatherWind HumidityBarometerVisibility
1:50 am
Sat, Jul 20
57 °FClear.2 mph88%30.04 "HgN/A
1:20 am57 °FClear.3 mph94%30.04 "HgN/A
12:50 am59 °FPassing clouds.3 mph94%30.04 "HgN/A
12:20 am59 °FPassing clouds.2 mph94%30.04 "HgN/A
11:50 pm
Fri, Jul 19
61 °FClear.2 mph94%30.04 "HgN/A
11:20 pm63 °FClear.3 mph88%30.04 "HgN/A
10:50 pm63 °FPassing clouds.1 mph88%30.04 "HgN/A
10:20 pm64 °FPassing clouds.No wind78%30.04 "HgN/A
9:50 pm64 °FClear.No wind83%30.04 "HgN/A
9:20 pm70 °FClear.3 mph64%30.04 "HgN/A
8:50 pm72 °FSunny.6 mph61%30.01 "HgN/A
8:20 pm72 °FPassing clouds.5 mph65%30.01 "HgN/A
7:50 pm75 °FSunny.5 mph54%30.01 "Hg10 mi
7:20 pm75 °FPassing clouds.3 mph54%30.01 "HgN/A
6:50 pm75 °FSunny.6 mph54%30.01 "Hg10 mi
6:20 pm77 °FPassing clouds.7 mph54%30.01 "HgN/A
5:50 pm77 °FSunny.9 mph54%30.01 "Hg10 mi
5:20 pm77 °FSunny.10 mph51%30.01 "Hg10 mi
4:50 pm79 °FPassing clouds.6 mph45%30.01 "HgN/A
4:20 pm79 °FPassing clouds.7 mph48%30.01 "HgN/A
3:50 pm79 °FPassing clouds.6 mph45%30.01 "HgN/A
3:20 pm79 °FSunny.7 mph51%30.04 "Hg10 mi
2:50 pm79 °FSunny.5 mph45%30.04 "Hg10 mi
2:20 pm77 °FPassing clouds.7 mph47%30.04 "HgN/A
1:50 pm77 °FPassing clouds.7 mph47%30.04 "HgN/A
1:20 pm75 °FSunny.6 mph54%30.04 "Hg10 mi
12:50 pm77 °FSunny.8 mph47%30.04 "Hg10 mi
12:20 pm75 °FPassing clouds.6 mph50%30.04 "HgN/A
11:50 am73 °FSunny.7 mph53%30.04 "Hg10 mi
11:20 am73 °FSunny.9 mph50%30.04 "Hg10 mi
10:50 am73 °FSunny.7 mph53%30.04 "Hg10 mi
10:20 am70 °FSunny.5 mph57%30.04 "Hg10 mi
9:50 am68 °FSunny.3 mph60%30.04 "Hg10 mi
9:20 am64 °FSunny.3 mph68%30.04 "Hg10 mi
8:50 am64 °FSunny.7 mph64%30.04 "Hg10 mi
8:20 am64 °FSunny.5 mph64%30.04 "Hg10 mi
7:50 am63 °FSunny.7 mph73%30.04 "Hg10 mi
7:20 am61 °FSunny.7 mph83%30.04 "Hg10 mi
6:50 am61 °FSunny.5 mph83%30.04 "Hg10 mi
6:20 am61 °FMore clouds than sun.6 mph77%30.04 "HgN/A
5:50 am59 °FOvercast.7 mph82%30.01 "HgN/A
5:20 am59 °FOvercast.5 mph82%30.01 "HgN/A
4:50 am61 °FMostly cloudy.3 mph72%30.04 "HgN/A
4:20 am63 °FOvercast.5 mph68%30.04 "HgN/A
3:50 am63 °FMostly cloudy.9 mph68%30.04 "HgN/A
3:20 am57 °FMostly cloudy.2 mph82%30.01 "HgN/A
Weather by CustomWeather, © 2019

See weather overview